Regional Weather Roundup
Issued by NWS Goodland, KS

Home | Current Version | Previous Version | Text Only | Print | Product List | Glossary Off
Versions: 1 2 3 4 5 6 7 8 9 10 11 12 13 14 15 16 17 18 19 20 21 22 23 24 25 26 27 28 29 30 31 32 33 34 35 36 37 38 39 40 41 42 43 44 45 46 47 48 49 50

000
ASUS43 KGLD 200759
RWRGLD

GOODLAND FORECAST AREA HOURLY WEATHER ROUNDUP
NATIONAL WEATHER SERVICE GOODLAND KS
200 AM MDT WED AUG 20 2014

...OFFICIAL OBSERVATIONS...

CITY           SKY/WX    TMP DP  RH WIND       PRES   REMARKS
GOODLAND KS    MOCLDY    75  59  57 S13       29.84S
HILL CITY KS   PTCLDY    77  62  59 SW7       29.80S
IMPERIAL NEB   CLOUDY    66  62  87 SE5       29.82F
MCCOOK NEB     CLOUDY    72  64  76 E3        29.79F
AKRON CO       CLOUDY    64  60  87 W3        29.88R
BURLINGTON CO  CLOUDY    74  57  55 S13       29.85F
LIMON CO       CLOUDY    64  49  57 NW3       29.92F
$$

...UNOFFICIAL OBSERVATIONS...

CITY           SKY/WX    TMP DP  RH WIND       PRES   REMARKS
COLBY KS       CLEAR     77  64  65 S13G18    29.83S
LENORA KS        N/A     73  32  22 CALM        N/A
NORTON KS      CLEAR     72  61  68 SE3       29.80S
SHARON SPRINGS   N/A     76  60  58 S12G18      N/A
WAKEENEY KS      N/A     76  58  51 MISG        N/A
KIT CARSON CO    N/A     73  55  53 MISG        N/A
YUMA CO          N/A     66  61  83 CALM        N/A
$$



USA.gov is the U.S. government's official web portal to all federal, state and local government web resources and services.